TimeEDT,TemperatureF,Dew PointF,Humidity,Sea Level PressureIn,VisibilityMPH,Wind Direction,Wind SpeedMPH,Gust SpeedMPH,PrecipitationIn,Events,Conditions,WindDirDegrees,DateUTC
12:05 AM,66.2,44.6,46,30.18,10.0,Calm,Calm,-,N/A,,Scattered Clouds,0,2013-05-18 04:05:00
12:25 AM,66.2,46.4,49,30.18,10.0,ESE,3.5,-,N/A,,Scattered Clouds,110,2013-05-18 04:25:00
12:45 AM,66.2,46.4,49,30.17,10.0,ESE,3.5,-,N/A,,Mostly Cloudy,120,2013-05-18 04:45:00
1:05 AM,66.2,48.2,52,30.18,10.0,Calm,Calm,-,N/A,,Overcast,0,2013-05-18 05:05:00
1:25 AM,66.2,48.2,52,30.18,10.0,Calm,Calm,-,N/A,,Overcast,0,2013-05-18 05:25:00
1:45 AM,64.4,48.2,56,30.18,10.0,ESE,3.5,-,N/A,,Overcast,120,2013-05-18 05:45:00
2:05 AM,64.4,50.0,59,30.18,10.0,ESE,3.5,-,N/A,,Overcast,110,2013-05-18 06:05:00
2:25 AM,64.4,51.8,64,30.18,10.0,SE,4.6,-,N/A,,Overcast,130,2013-05-18 06:25:00
2:45 AM,64.4,51.8,64,30.18,10.0,ESE,4.6,-,N/A,,Scattered Clouds,110,2013-05-18 06:45:00
3:05 AM,64.4,53.6,68,30.18,10.0,SE,6.9,-,N/A,,Mostly Cloudy,130,2013-05-18 07:05:00
3:25 AM,64.4,53.6,68,30.18,10.0,SE,8.1,-,N/A,,Mostly Cloudy,130,2013-05-18 07:25:00
4:05 AM,62.6,51.8,68,30.19,10.0,SE,6.9,-,N/A,,Scattered Clouds,130,2013-05-18 08:05:00
4:45 AM,60.8,53.6,77,30.20,10.0,ESE,6.9,-,N/A,,Clear,110,2013-05-18 08:45:00
5:05 AM,60.8,53.6,77,30.20,10.0,SE,5.8,-,N/A,,Clear,130,2013-05-18 09:05:00
5:25 AM,59.0,53.6,82,30.20,10.0,SE,5.8,-,N/A,,Clear,130,2013-05-18 09:25:00
5:45 AM,59.0,51.8,77,30.21,10.0,SE,6.9,-,N/A,,Clear,130,2013-05-18 09:45:00
6:05 AM,59.0,51.8,77,30.21,10.0,SE,8.1,-,N/A,,Scattered Clouds,130,2013-05-18 10:05:00
6:25 AM,59.0,51.8,77,30.21,10.0,SE,9.2,-,N/A,,Scattered Clouds,130,2013-05-18 10:25:00
6:45 AM,59.0,51.8,77,30.21,10.0,SE,10.4,-,N/A,,Scattered Clouds,130,2013-05-18 10:45:00
7:05 AM,59.0,51.8,77,30.22,10.0,SE,10.4,-,N/A,,Clear,130,2013-05-18 11:05:00
7:25 AM,60.8,51.8,72,30.22,10.0,SE,9.2,-,N/A,,Clear,140,2013-05-18 11:25:00
7:45 AM,60.8,51.8,72,30.23,10.0,SE,9.2,-,N/A,,Clear,130,2013-05-18 11:45:00
8:05 AM,62.6,51.8,68,30.23,10.0,SE,8.1,-,N/A,,Clear,140,2013-05-18 12:05:00
8:25 AM,62.6,51.8,68,30.23,10.0,SE,10.4,-,N/A,,Mostly Cloudy,130,2013-05-18 12:25:00
8:45 AM,64.4,51.8,64,30.23,10.0,SE,10.4,-,N/A,,Overcast,140,2013-05-18 12:45:00
9:05 AM,64.4,51.8,64,30.24,10.0,SE,11.5,-,N/A,,Overcast,140,2013-05-18 13:05:00
9:25 AM,64.4,51.8,64,30.25,10.0,SSE,8.1,-,N/A,,Overcast,150,2013-05-18 13:25:00
9:45 AM,64.4,51.8,64,30.25,10.0,SE,8.1,-,N/A,,Overcast,140,2013-05-18 13:45:00
10:05 AM,66.2,51.8,60,30.24,10.0,SSE,9.2,-,N/A,,Overcast,160,2013-05-18 14:05:00
10:25 AM,68.0,51.8,56,30.24,10.0,South,11.5,-,N/A,,Overcast,170,2013-05-18 14:25:00
10:45 AM,69.8,51.8,53,30.25,10.0,SSE,8.1,-,N/A,,Overcast,160,2013-05-18 14:45:00
11:05 AM,68.0,50.0,52,30.25,10.0,South,9.2,-,N/A,,Overcast,170,2013-05-18 15:05:00
11:30 AM,68.0,50.0,52,30.24,10.0,SSE,8.1,-,N/A,,Overcast,150,2013-05-18 15:30:00
11:50 AM,69.8,51.8,53,30.23,10.0,SSE,12.7,16.1,N/A,,Overcast,160,2013-05-18 15:50:00
12:10 PM,68.0,53.6,60,30.25,10.0,SSE,11.5,-,N/A,,Overcast,150,2013-05-18 16:10:00
12:30 PM,66.2,51.8,60,30.24,10.0,South,13.8,-,N/A,,Overcast,170,2013-05-18 16:30:00
12:50 PM,66.2,51.8,60,30.24,10.0,South,11.5,-,N/A,,Overcast,180,2013-05-18 16:50:00
1:10 PM,64.4,55.4,73,30.24,10.0,South,12.7,16.1,N/A,,Light Drizzle,170,2013-05-18 17:10:00
1:30 PM,64.4,55.4,73,30.23,10.0,SSE,11.5,18.4,N/A,Rain,Light Rain,160,2013-05-18 17:30:00
1:50 PM,66.2,51.8,60,30.23,10.0,SSE,5.8,-,N/A,,Overcast,160,2013-05-18 17:50:00
2:10 PM,64.4,53.6,68,30.23,7.0,South,13.8,18.4,N/A,,Overcast,170,2013-05-18 18:10:00
2:30 PM,64.4,55.4,73,30.23,10.0,South,9.2,-,N/A,Rain,Light Rain,180,2013-05-18 18:30:00
2:50 PM,62.6,55.4,77,30.23,7.0,South,9.2,-,N/A,,Overcast,170,2013-05-18 18:50:00
3:10 PM,62.6,55.4,77,30.23,7.0,South,9.2,-,N/A,,Overcast,170,2013-05-18 19:10:00
3:30 PM,62.6,55.4,77,30.23,10.0,South,10.4,-,N/A,,Overcast,170,2013-05-18 19:30:00
3:50 PM,62.6,57.2,82,30.23,10.0,SSE,6.9,-,N/A,,Overcast,150,2013-05-18 19:50:00
4:10 PM,62.6,57.2,82,30.23,10.0,ESE,3.5,-,N/A,,Overcast,120,2013-05-18 20:10:00
4:30 PM,60.8,57.2,88,30.23,5.0,SE,6.9,-,N/A,,Overcast,140,2013-05-18 20:30:00
4:50 PM,60.8,60.8,100,30.23,7.0,SE,5.8,-,N/A,,Overcast,140,2013-05-18 20:50:00
5:10 PM,60.8,57.2,88,30.23,7.0,SE,9.2,-,N/A,Rain,Light Rain,140,2013-05-18 21:10:00
5:30 PM,60.8,57.2,88,30.23,10.0,SE,8.1,-,N/A,,Overcast,140,2013-05-18 21:30:00
5:50 PM,60.8,57.2,88,30.22,7.0,ESE,6.9,-,N/A,,Overcast,110,2013-05-18 21:50:00
6:05 PM,60.8,57.2,88,30.22,10.0,ESE,6.9,-,N/A,,Overcast,110,2013-05-18 22:05:00
6:30 PM,60.8,57.2,88,30.23,10.0,ESE,5.8,-,N/A,,Overcast,120,2013-05-18 22:30:00
6:50 PM,60.8,57.2,88,30.23,10.0,ESE,5.8,-,N/A,,Overcast,120,2013-05-18 22:50:00
7:10 PM,60.8,57.2,88,30.23,10.0,SE,3.5,-,N/A,,Overcast,130,2013-05-18 23:10:00
7:30 PM,60.8,55.4,82,30.24,10.0,SE,4.6,-,N/A,,Overcast,130,2013-05-18 23:30:00
7:50 PM,60.8,55.4,82,30.24,10.0,ESE,4.6,-,N/A,,Overcast,110,2013-05-18 23:50:00
8:10 PM,59.0,55.4,88,30.23,10.0,SE,8.1,-,N/A,,Drizzle,140,2013-05-19 00:10:00
8:30 PM,59.0,55.4,88,30.24,10.0,ESE,4.6,-,N/A,,Overcast,110,2013-05-19 00:30:00
8:50 PM,59.0,55.4,88,30.24,10.0,ESE,3.5,-,N/A,,Overcast,110,2013-05-19 00:50:00
9:10 PM,59.0,55.4,88,30.24,10.0,SE,5.8,-,N/A,,Overcast,140,2013-05-19 01:10:00
9:30 PM,59.0,55.4,88,30.24,10.0,SE,8.1,-,N/A,,Overcast,130,2013-05-19 01:30:00
9:50 PM,59.0,55.4,88,30.25,10.0,ESE,4.6,-,N/A,,Overcast,120,2013-05-19 01:50:00
10:10 PM,59.0,55.4,88,30.25,10.0,ESE,4.6,-,N/A,,Overcast,120,2013-05-19 02:10:00
10:30 PM,59.0,55.4,88,30.25,10.0,SE,6.9,-,N/A,,Overcast,140,2013-05-19 02:30:00
10:50 PM,59.0,55.4,88,30.25,7.0,Calm,Calm,-,N/A,,Overcast,0,2013-05-19 02:50:00
11:10 PM,57.2,55.4,94,30.24,7.0,Calm,Calm,-,N/A,,Overcast,0,2013-05-19 03:10:00
11:50 PM,59.0,55.4,88,30.24,7.0,SE,4.6,-,N/A,,Overcast,140,2013-05-19 03:50:00